FW9488 Weather Reports


time (UTC)temp
C
wind
direction
speed
KPH
gust
KPH
rain 1hr
cm
rain 24hr
cm
rain mn
cm
humidity
%
barometer
mb
20260502181547 27 132 4.8 17.7 0.00 0.00 0.00 10 1015.9
20260502163056 25 0 0.0 6.4 0.00 0.00 0.00 12 1016.6
20260502161552 24 238 0.0 6.4 0.00 0.00 0.00 13 1016.6
20260502151557 20 0 0.0 3.2 0.00 0.00 0.00 17 1016.5
20260502123048 11 0 0.0 4.8 0.00 0.00 0.00 27 1015.2
20260502121549 11 360 3.2 8.0 0.00 0.00 0.00 26 1015.1
20260502114621 12 360 0.0 3.2 0.00 0.00 0.00 25 1015.0
20260502113049 12 360 3.2 6.4 0.00 0.00 0.00 25 1015.2
20260502111550 13 0 0.0 1.6 0.00 0.00 0.00 24 1015.1
20260502110050 13 360 1.6 4.8 0.00 0.00 0.00 22 1015.1
20260502104551 13 360 3.2 8.0 0.00 0.00 0.00 21 1015.1
20260502103047 13 0 1.6 6.4 0.00 0.00 0.00 22 1014.8
20260502101603 14 0 0.0 3.2 0.00 0.00 0.00 21 1014.9
20260502100105 15 360 1.6 6.4 0.00 0.00 0.00 19 1014.9
20260502064614 20 194 3.2 8.0 0.00 0.00 0.00 16 1014.9
20260502063104 20 185 4.8 12.9 0.00 0.00 0.00 16 1014.8
20260502061548 21 145 1.6 12.9 0.00 0.00 0.00 15 1014.5
20260502060049 21 76 1.6 6.4 0.00 0.00 0.00 15 1014.5
20260502054549 22 152 6.4 16.1 0.00 0.00 0.00 14 1014.4
20260502053056 21 100 6.4 12.9 0.00 0.00 0.00 15 1014.3
20260502051547 20 0 0.0 4.8 0.00 0.00 0.00 16 1014.3
20260502050050 21 239 0.0 4.8 0.00 0.00 0.00 15 1014.2
20260502044547 22 83 4.8 12.9 0.00 0.00 0.00 14 1013.9
20260502043113 22 81 8.0 17.7 0.00 0.00 0.00 14 1013.8
20260502041559 22 56 9.7 19.3 0.00 0.00 0.00 14 1013.5
20260502040047 22 60 3.2 9.7 0.00 0.00 0.00 15 1013.5
20260502034549 22 0 0.0 1.6 0.00 0.00 0.00 15 1013.1
20260502033045 23 65 1.6 6.4 0.00 0.00 0.00 14 1012.9
20260502031548 23 69 4.8 8.0 0.00 0.00 0.00 13 1012.7
20260502030051 24 57 3.2 9.7 0.00 0.00 0.00 13 1012.7
20260502024550 25 55 3.2 9.7 0.00 0.00 0.00 13 1012.4
20260502023050 25 26 3.2 9.7 0.00 0.00 0.00 13 1012.4
20260502021553 26 17 3.2 8.0 0.00 0.00 0.00 12 1012.3
20260502020051 26 30 8.0 19.3 0.00 0.00 0.00 12 1012.1
20260502014551 27 26 8.0 17.7 0.00 0.00 0.00 12 1012.1
20260502013055 27 360 11.3 20.9 0.00 0.00 0.00 12 1012.1
20260502011553 27 350 12.9 22.5 0.00 0.00 0.00 11 1012.0
20260502010059 28 351 8.0 19.3 0.00 0.00 0.00 11 1012.0
20260502004546 28 331 11.3 25.7 0.00 0.00 0.00 12 1012.0
20260502003048 28 327 11.3 22.5 0.00 0.00 0.00 12 1011.9
20260502001543 28 331 11.3 24.1 0.00 0.00 0.00 12 1012.0
20260502000051 28 9 16.1 25.7 0.00 0.00 0.00 12 1012.0
20260501234546 28 329 9.7 22.5 0.00 0.00 0.00 12 1012.1
20260501233050 28 339 11.3 32.2 0.00 0.00 0.00 12 1012.2
20260501231551 28 313 14.5 24.1 0.00 0.00 0.00 12 1012.4
20260501230048 28 339 12.9 25.7 0.00 0.00 0.00 12 1012.5
20260501224547 28 298 9.7 16.1 0.00 0.00 0.00 12 1012.5
20260501223046 28 336 14.5 25.7 0.00 0.00 0.00 12 1012.9
20260501221549 28 277 12.9 27.4 0.00 0.00 0.00 12 1012.9
20260501220105 28 296 9.7 29.0 0.00 0.00 0.00 12 1012.9
20260501214548 28 321 11.3 27.4 0.00 0.00 0.00 12 1013.0
20260501213050 28 338 14.5 29.0 0.00 0.00 0.00 13 1013.2
20260501211558 27 327 14.5 27.4 0.00 0.00 0.00 12 1013.5
20260501210048 27 335 12.9 25.7 0.00 0.00 0.00 12 1013.6
20260501204600 27 348 9.7 29.0 0.00 0.00 0.00 13 1013.8
20260501203045 27 300 9.7 25.7 0.00 0.00 0.00 12 1013.9
20260501201550 27 239 9.7 19.3 0.00 0.00 0.00 14 1014.1
20260501200050 27 258 11.3 22.5 0.00 0.00 0.00 14 1014.2
20260501194550 27 314 12.9 24.1 0.00 0.00 0.00 15 1014.2
20260501193050 27 82 4.8 12.9 0.00 0.00 0.00 15 1014.3
20260501191548 27 344 14.5 25.7 0.00 0.00 0.00 16 1014.9
20260501190049 26 253 4.8 17.7 0.00 0.00 0.00 16 1014.9
20260501184552 26 5 12.9 20.9 0.00 0.00 0.00 16 1015.2
20260501183103 26 267 3.2 16.1 0.00 0.00 0.00 16 1015.2